EA2BJM-15 Weather Reports


Display with metric or nautical units.
time (UTC)temp
F
wind
direction
speed
MPH
gust
MPH
rain 1hr
in
rain 24hr
in
rain mn
in
humidity
%
barometer
mb
20260506222842 59 0 0.0 0.0 0.00 0.00 0.00 46 1012.8
20260506221342 60 0 0.0 0.0 0.00 0.00 0.00 44 1012.8
20260506215842 60 0 0.0 0.0 0.00 0.00 0.00 43 1012.8
20260506214342 61 0 0.0 0.0 0.00 0.00 0.00 42 1012.8
20260506212842 61 0 0.0 0.0 0.00 0.00 0.00 39 1012.8
20260506211343 62 0 0.0 0.0 0.00 0.00 0.00 38 1012.8
20260506205843 62 0 0.0 0.0 0.00 0.00 0.00 38 1012.8
20260506204343 62 0 0.0 0.0 0.00 0.00 0.00 37 1011.8
20260506202843 63 0 0.0 0.0 0.00 0.00 0.00 35 1011.8
20260506201343 64 0 0.0 0.0 0.00 0.00 0.00 34 1011.8
20260506195843 64 0 0.0 0.0 0.00 0.00 0.00 33 1011.8
20260506194343 65 0 0.0 0.0 0.00 0.00 0.00 33 1011.8
20260506192842 66 0 0.0 0.0 0.00 0.00 0.00 31 1011.8
20260506191342 66 0 0.0 0.0 0.00 0.00 0.00 28 1010.8
20260506185842 67 0 0.0 0.0 0.00 0.00 0.00 26 1010.8
20260506184342 67 0 0.0 0.0 0.00 0.00 0.00 25 1010.8
20260506182842 68 0 0.0 0.0 0.00 0.00 0.00 24 1010.8
20260506181342 68 0 0.0 0.0 0.00 0.00 0.00 23 1010.8
20260506175843 69 0 0.0 0.0 0.00 0.00 0.00 23 1010.8
20260506174342 69 0 0.0 0.0 0.00 0.00 0.00 23 1010.8
20260506172842 69 0 0.0 0.0 0.00 0.00 0.00 23 1010.8
20260506171342 70 0 0.0 0.0 0.00 0.00 0.00 23 1010.8
20260506165842 70 0 0.0 0.0 0.00 0.00 0.00 23 1010.8
20260506164342 70 0 0.0 0.0 0.00 0.00 0.00 23 1010.8
20260506162843 71 0 0.0 0.0 0.00 0.00 0.00 23 1010.8
20260506161343 71 0 0.0 0.0 0.00 0.00 0.00 23 1010.8
20260506155843 71 0 0.0 0.0 0.00 0.00 0.00 23 1010.8
20260506154342 71 0 0.0 0.0 0.00 0.00 0.00 23 1010.8
20260506152844 72 0 0.0 0.0 0.00 0.00 0.00 22 1010.8
20260506151343 72 0 0.0 0.0 0.00 0.00 0.00 22 1011.8
20260506145842 72 0 0.0 0.0 0.00 0.00 0.00 22 1011.8
20260506144342 73 0 0.0 0.0 0.00 0.00 0.00 22 1011.8
20260506142843 73 0 0.0 0.0 0.00 0.00 0.00 22 1011.8
20260506141343 72 0 0.0 0.0 0.00 0.00 0.00 22 1011.8
20260506135842 72 0 0.0 0.0 0.00 0.00 0.00 22 1011.8
20260506134343 72 0 0.0 0.0 0.00 0.00 0.00 22 1012.8
20260506132843 73 0 0.0 0.0 0.00 0.00 0.00 22 1012.8
20260506131343 73 0 0.0 0.0 0.00 0.00 0.00 22 1012.8
20260506125843 73 0 0.0 0.0 0.00 0.00 0.00 22 1012.8
20260506124343 73 0 0.0 0.0 0.00 0.00 0.00 23 1012.8
20260506122843 73 0 0.0 0.0 0.00 0.00 0.00 22 1012.8
20260506121342 73 0 0.0 0.0 0.00 0.00 0.00 23 1012.8
20260506115842 73 0 0.0 0.0 0.00 0.00 0.00 24 1012.8
20260506114342 73 0 0.0 0.0 0.00 0.00 0.00 24 1012.8
20260506112842 73 0 0.0 0.0 0.00 0.00 0.00 24 1012.8
20260506111342 72 0 0.0 0.0 0.00 0.00 0.00 24 1012.8
20260506105842 71 0 0.0 0.0 0.00 0.00 0.00 24 1013.8
20260506104342 71 0 0.0 0.0 0.00 0.00 0.00 25 1013.8
20260506102842 71 0 0.0 0.0 0.00 0.00 0.00 25 1013.8
20260506101342 70 0 0.0 0.0 0.00 0.00 0.00 25 1013.8
20260506095842 70 0 0.0 0.0 0.00 0.00 0.00 26 1013.8
20260506094342 69 0 0.0 0.0 0.00 0.00 0.00 26 1013.8
20260506092842 69 0 0.0 0.0 0.00 0.00 0.00 27 1013.8
20260506091342 68 0 0.0 0.0 0.00 0.00 0.00 28 1013.8
20260506085842 68 0 0.0 0.0 0.00 0.00 0.00 29 1013.8
20260506084342 68 0 0.0 0.0 0.00 0.00 0.00 32 1013.8
20260506082842 67 0 0.0 0.0 0.00 0.00 0.00 33 1013.8
20260506081343 67 0 0.0 0.0 0.00 0.00 0.00 34 1013.8
20260506072842 65 0 0.0 0.0 0.00 0.00 0.00 35 1013.8
20260506071342 66 0 0.0 0.0 0.00 0.00 0.00 35 1013.8
20260506061343 58 0 0.0 0.0 0.00 0.00 0.00 49 1013.8
20260506051343 51 0 0.0 0.0 0.00 0.00 0.00 63 1013.8
20260506044342 51 0 0.0 0.0 0.00 0.00 0.00 62 1012.8
20260506042842 51 0 0.0 0.0 0.00 0.00 0.00 62 1012.8
20260506041342 52 0 0.0 0.0 0.00 0.00 0.00 61 1012.8
20260506035844 52 0 0.0 0.0 0.00 0.00 0.00 61 1012.8
20260506034343 52 0 0.0 0.0 0.00 0.00 0.00 61 1012.8
20260506032843 52 0 0.0 0.0 0.00 0.00 0.00 61 1012.8
20260506031344 52 0 0.0 0.0 0.00 0.00 0.00 61 1012.8
20260506025843 52 0 0.0 0.0 0.00 0.00 0.00 61 1012.8
20260506024343 52 0 0.0 0.0 0.00 0.00 0.00 61 1012.8
20260506022843 52 0 0.0 0.0 0.00 0.00 0.00 62 1012.8
20260506021343 52 0 0.0 0.0 0.00 0.00 0.00 62 1012.8
20260506015843 53 0 0.0 0.0 0.00 0.00 0.00 61 1012.8
20260506014343 53 0 0.0 0.0 0.00 0.00 0.00 61 1012.8
20260506012843 53 0 0.0 0.0 0.00 0.00 0.00 61 1012.8
20260506011343 53 0 0.0 0.0 0.00 0.00 0.00 60 1012.8
20260506005843 54 0 0.0 0.0 0.00 0.00 0.00 59 1012.8
20260506004343 54 0 0.0 0.0 0.00 0.00 0.00 58 1012.8
20260506002843 55 0 0.0 0.0 0.00 0.00 0.00 58 1012.8
20260506001343 55 0 0.0 0.0 0.00 0.00 0.00 56 1012.8
20260505235843 55 0 0.0 0.0 0.00 0.00 0.00 54 1012.8
20260505234343 56 0 0.0 0.0 0.00 0.00 0.00 53 1013.8
20260505232843 56 0 0.0 0.0 0.00 0.00 0.00 54 1012.8
20260505231343 56 0 0.0 0.0 0.00 0.00 0.00 54 1013.8
20260505225844 56 0 0.0 0.0 0.00 0.00 0.00 54 1013.8
20260505224344 57 0 0.0 0.0 0.00 0.00 0.00 55 1013.8